Location: Ahstedt
(52.2048°N, 10.1060°E)
Time: 00:21:44
(UTC+00:00)

AQUARIUS - Pass Details

Date: 18 January 2026
Orbit: 633 x 636 km, 98.0° (Epoch: 17 February)

Event Time Altitude Azimuth Distance (km) Brightness Sun altitude
Rises 06:24:45 0° 13° (NNE) 2,948 7.4 -8.1°
Reaches altitude 10° 06:26:58 10° 12° (NNE) 2,034 6.6 -7.8°
Maximum altitude 06:31:24 78° 287° (WNW) 655 4.1 -7.2°
Drops below altitude 10° 06:35:47 10° 201° (SSW) 2,016 6.8 -6.6°
Sets 06:37:58 0° 200° (SSW) 2,919 7.6 -6.3°
